| time (UTC) | temp F | wind direction | speed MPH | gust MPH | rain 1hr in | rain 24hr in | rain mn in | humidity % | barometer mb |
| 20260502194503 | 56 | 210 | 2.0 | 6.0 | 0.00 | 0.00 | 0.00 | 57 | 1016.3 |
| 20260502194003 | 56 | 210 | 0.0 | 4.0 | 0.00 | 0.00 | 0.00 | 57 | 1016.2 |
| 20260502193503 | 55 | 210 | 0.0 | 2.0 | 0.00 | 0.00 | 0.00 | 60 | 1016.2 |
| 20260502193218 | 55 | 210 | 0.0 | 4.0 | 0.00 | 0.00 | 0.00 | 59 | 1016.3 |
| 20260502192717 | 55 | 210 | 0.0 | 4.0 | 0.00 | 0.00 | 0.00 | 60 | 1016.4 |
| 20260502192003 | 54 | 210 | 2.0 | 4.0 | 0.00 | 0.00 | 0.00 | 62 | 1016.5 |
| 20260502191503 | 53 | 210 | 2.0 | 4.0 | 0.00 | 0.00 | 0.00 | 63 | 1016.5 |
| 20260502191217 | 53 | 210 | 2.0 | 4.0 | 0.00 | 0.00 | 0.00 | 63 | 1016.5 |
| 20260502190503 | 53 | 210 | 0.0 | 2.0 | 0.00 | 0.00 | 0.00 | 63 | 1016.6 |
| 20260502190004 | 53 | 210 | 2.0 | 4.0 | 0.00 | 0.00 | 0.00 | 63 | 1016.6 |
| 20260502185503 | 53 | 210 | 2.0 | 4.0 | 0.00 | 0.00 | 0.00 | 63 | 1016.7 |
| 20260502185217 | 53 | 210 | 2.0 | 4.0 | 0.00 | 0.00 | 0.00 | 62 | 1016.7 |
| 20260502184503 | 53 | 210 | 2.0 | 4.0 | 0.00 | 0.00 | 0.00 | 65 | 1016.7 |
| 20260502184003 | 53 | 210 | 2.0 | 4.0 | 0.00 | 0.00 | 0.00 | 64 | 1016.7 |
| 20260502183718 | 53 | 210 | 2.0 | 4.0 | 0.00 | 0.00 | 0.00 | 64 | 1016.7 |
| 20260502183003 | 53 | 210 | 2.0 | 4.0 | 0.00 | 0.00 | 0.00 | 63 | 1016.6 |
| 20260502182718 | 53 | 210 | 2.0 | 4.0 | 0.00 | 0.00 | 0.00 | 63 | 1016.7 |
| 20260502182003 | 54 | 210 | 0.0 | 4.0 | 0.00 | 0.00 | 0.00 | 62 | 1016.8 |
| 20260502181503 | 54 | 210 | 0.0 | 4.0 | 0.00 | 0.00 | 0.00 | 63 | 1016.7 |
| 20260502181003 | 54 | 210 | 0.0 | 4.0 | 0.00 | 0.00 | 0.00 | 64 | 1016.7 |
| 20260502180503 | 54 | 210 | 0.0 | 4.0 | 0.00 | 0.00 | 0.00 | 63 | 1016.8 |
| 20260502180217 | 54 | 210 | 0.0 | 4.0 | 0.00 | 0.00 | 0.00 | 63 | 1016.7 |
| 20260502170503 | 55 | 210 | 0.0 | 2.0 | 0.00 | 0.00 | 0.00 | 60 | 1017.0 |
| 20260502164003 | 56 | 210 | 0.0 | 2.0 | 0.00 | 0.00 | 0.00 | 58 | 1017.1 |
| 20260502163503 | 56 | 210 | 0.0 | 4.0 | 0.00 | 0.00 | 0.00 | 57 | 1017.1 |
| 20260502163003 | 57 | 210 | 0.0 | 4.0 | 0.00 | 0.00 | 0.00 | 60 | 1017.1 |
| 20260502162503 | 56 | 210 | 0.0 | 2.0 | 0.00 | 0.00 | 0.00 | 58 | 1017.2 |
| 20260502162003 | 56 | 210 | 0.0 | 4.0 | 0.00 | 0.00 | 0.00 | 57 | 1017.3 |
| 20260502161503 | 56 | 210 | 0.0 | 4.0 | 0.00 | 0.00 | 0.00 | 59 | 1017.3 |
| 20260502161003 | 56 | 210 | 0.0 | 4.0 | 0.00 | 0.00 | 0.00 | 58 | 1017.3 |
| 20260502160503 | 56 | 210 | 0.0 | 4.0 | 0.00 | 0.00 | 0.00 | 60 | 1017.3 |
| 20260502151503 | 57 | 210 | 0.0 | 2.0 | 0.00 | 0.00 | 0.00 | 59 | 1017.2 |
| 20260502151003 | 56 | 210 | 0.0 | 4.0 | 0.00 | 0.01 | 0.00 | 63 | 1017.2 |
| 20260502150503 | 56 | 210 | 0.0 | 4.0 | 0.00 | 0.01 | 0.00 | 64 | 1017.2 |
| 20260502130718 | 46 | 210 | 2.0 | 6.0 | 0.00 | 0.01 | 0.00 | 78 | 1016.8 |
| 20260502130217 | 46 | 210 | 2.0 | 6.0 | 0.00 | 0.01 | 0.00 | 78 | 1016.8 |
| 20260502123503 | 46 | 210 | 0.0 | 6.0 | 0.00 | 0.01 | 0.00 | 82 | 1016.6 |
| 20260502123003 | 45 | 210 | 2.0 | 6.0 | 0.00 | 0.01 | 0.00 | 84 | 1016.6 |
| 20260502122503 | 44 | 210 | 2.0 | 4.0 | 0.00 | 0.01 | 0.00 | 85 | 1016.4 |
| 20260502122003 | 44 | 210 | 0.0 | 4.0 | 0.00 | 0.01 | 0.00 | 86 | 1016.4 |
| 20260502121503 | 43 | 210 | 0.0 | 4.0 | 0.00 | 0.01 | 0.00 | 87 | 1016.4 |
| 20260502121003 | 43 | 210 | 0.0 | 4.0 | 0.00 | 0.01 | 0.00 | 88 | 1016.4 |
| 20260502120503 | 43 | 210 | 0.0 | 4.0 | 0.00 | 0.01 | 0.00 | 90 | 1016.5 |
| 20260502120217 | 43 | 210 | 0.0 | 4.0 | 0.00 | 0.01 | 0.00 | 93 | 1016.6 |
| 20260502115503 | 41 | 0 | 0.0 | 0.0 | 0.00 | 0.01 | 0.00 | 95 | 1016.6 |
| 20260502115003 | 40 | 0 | 0.0 | 0.0 | 0.00 | 0.01 | 0.00 | 95 | 1016.6 |
| 20260502114503 | 39 | 0 | 0.0 | 0.0 | 0.00 | 0.01 | 0.00 | 95 | 1016.7 |
| 20260502114003 | 39 | 0 | 0.0 | 0.0 | 0.00 | 0.01 | 0.00 | 95 | 1016.6 |
| 20260502113503 | 38 | 0 | 0.0 | 0.0 | 0.00 | 0.01 | 0.00 | 94 | 1016.3 |
| 20260502113003 | 38 | 0 | 0.0 | 0.0 | 0.00 | 0.01 | 0.00 | 94 | 1016.3 |
| 20260502112503 | 38 | 0 | 0.0 | 0.0 | 0.00 | 0.01 | 0.00 | 94 | 1016.5 |
| 20260502112003 | 38 | 0 | 0.0 | 0.0 | 0.00 | 0.01 | 0.00 | 94 | 1016.7 |
| 20260502111503 | 38 | 0 | 0.0 | 0.0 | 0.00 | 0.01 | 0.00 | 94 | 1016.6 |
| 20260502111216 | 38 | 0 | 0.0 | 0.0 | 0.00 | 0.01 | 0.00 | 94 | 1016.5 |
| 20260502110503 | 38 | 0 | 0.0 | 0.0 | 0.00 | 0.01 | 0.00 | 94 | 1016.3 |
| 20260502110003 | 38 | 0 | 0.0 | 0.0 | 0.00 | 0.01 | 0.00 | 94 | 1016.2 |
| 20260502105503 | 38 | 0 | 0.0 | 0.0 | 0.00 | 0.01 | 0.00 | 94 | 1016.2 |
| 20260502105003 | 38 | 0 | 0.0 | 0.0 | 0.00 | 0.01 | 0.00 | 94 | 1016.1 |
| 20260502104503 | 38 | 0 | 0.0 | 0.0 | 0.00 | 0.01 | 0.00 | 94 | 1016.1 |
| 20260502104003 | 38 | 0 | 0.0 | 0.0 | 0.00 | 0.01 | 0.00 | 94 | 1016.0 |
| 20260502103503 | 38 | 0 | 0.0 | 0.0 | 0.00 | 0.01 | 0.00 | 94 | 1016.0 |
| 20260502103218 | 38 | 0 | 0.0 | 0.0 | 0.00 | 0.01 | 0.00 | 94 | 1015.9 |
| 20260502102503 | 38 | 0 | 0.0 | 0.0 | 0.00 | 0.01 | 0.00 | 94 | 1015.8 |
| 20260502102003 | 38 | 0 | 0.0 | 0.0 | 0.00 | 0.01 | 0.00 | 94 | 1015.9 |
| 20260502101503 | 37 | 0 | 0.0 | 0.0 | 0.00 | 0.01 | 0.00 | 94 | 1016.0 |
| 20260502101003 | 37 | 0 | 0.0 | 0.0 | 0.00 | 0.01 | 0.00 | 94 | 1016.0 |
| 20260502100503 | 37 | 0 | 0.0 | 0.0 | 0.00 | 0.01 | 0.00 | 94 | 1016.0 |
| 20260502100218 | 37 | 0 | 0.0 | 0.0 | 0.00 | 0.01 | 0.00 | 94 | 1016.0 |
| 20260502091503 | 37 | 0 | 0.0 | 0.0 | 0.00 | 0.01 | 0.00 | 93 | 1015.8 |
| 20260502091003 | 37 | 0 | 0.0 | 0.0 | 0.00 | 0.01 | 0.00 | 93 | 1016.0 |
| 20260502090503 | 37 | 0 | 0.0 | 0.0 | 0.00 | 0.01 | 0.00 | 93 | 1016.0 |
| 20260502071503 | 38 | 0 | 0.0 | 0.0 | 0.00 | 0.01 | 0.00 | 92 | 1016.0 |
| 20260502071003 | 38 | 0 | 0.0 | 0.0 | 0.00 | 0.01 | 0.00 | 92 | 1015.9 |
| 20260502070503 | 38 | 0 | 0.0 | 0.0 | 0.00 | 0.01 | 0.00 | 91 | 1015.9 |
| 20260502070003 | 38 | 0 | 0.0 | 0.0 | 0.00 | 0.01 | 0.00 | 91 | 1015.8 |
| 20260502065503 | 38 | 0 | 0.0 | 0.0 | 0.00 | 0.01 | 0.00 | 91 | 1015.9 |
| 20260502065003 | 39 | 0 | 0.0 | 0.0 | 0.00 | 0.01 | 0.00 | 91 | 1015.9 |
| 20260502064503 | 39 | 0 | 0.0 | 0.0 | 0.00 | 0.01 | 0.00 | 91 | 1015.9 |
| 20260502064003 | 39 | 0 | 0.0 | 0.0 | 0.00 | 0.01 | 0.00 | 91 | 1016.0 |
| 20260502063503 | 39 | 0 | 0.0 | 0.0 | 0.00 | 0.01 | 0.00 | 91 | 1016.0 |
| 20260502063003 | 39 | 0 | 0.0 | 0.0 | 0.00 | 0.01 | 0.00 | 91 | 1016.0 |
| 20260502062503 | 39 | 0 | 0.0 | 0.0 | 0.00 | 0.01 | 0.00 | 90 | 1016.0 |
| 20260502062216 | 39 | 0 | 0.0 | 0.0 | 0.00 | 0.01 | 0.00 | 90 | 1015.9 |
| 20260502061503 | 39 | 0 | 0.0 | 0.0 | 0.00 | 0.01 | 0.00 | 90 | 1016.0 |
| 20260502061003 | 39 | 0 | 0.0 | 0.0 | 0.00 | 0.01 | 0.00 | 90 | 1016.2 |
| 20260502060503 | 39 | 0 | 0.0 | 0.0 | 0.00 | 0.01 | 0.00 | 90 | 1016.2 |
| 20260502060003 | 39 | 0 | 0.0 | 0.0 | 0.00 | 0.01 | 0.00 | 90 | 1016.1 |
| 20260502055503 | 39 | 0 | 0.0 | 0.0 | 0.00 | 0.01 | 0.00 | 89 | 1016.2 |
| 20260502055003 | 39 | 0 | 0.0 | 0.0 | 0.00 | 0.01 | 0.00 | 89 | 1016.2 |
| 20260502054503 | 39 | 0 | 0.0 | 0.0 | 0.00 | 0.01 | 0.00 | 89 | 1016.3 |
| 20260502054216 | 39 | 0 | 0.0 | 0.0 | 0.00 | 0.01 | 0.00 | 89 | 1016.4 |
| 20260502053503 | 40 | 0 | 0.0 | 0.0 | 0.00 | 0.01 | 0.00 | 89 | 1016.4 |
| 20260502053003 | 40 | 0 | 0.0 | 0.0 | 0.00 | 0.01 | 0.00 | 89 | 1016.4 |
| 20260502052503 | 40 | 0 | 0.0 | 0.0 | 0.00 | 0.01 | 0.00 | 89 | 1016.5 |
| 20260502052218 | 40 | 0 | 0.0 | 0.0 | 0.00 | 0.01 | 0.00 | 89 | 1016.5 |
| 20260502051503 | 40 | 0 | 0.0 | 0.0 | 0.00 | 0.01 | 0.00 | 88 | 1016.4 |
| 20260502051003 | 40 | 0 | 0.0 | 0.0 | 0.00 | 0.01 | 0.00 | 88 | 1016.5 |
| 20260502050717 | 40 | 0 | 0.0 | 0.0 | 0.00 | 0.01 | 0.00 | 88 | 1016.5 |
| 20260502050003 | 40 | 0 | 0.0 | 0.0 | 0.00 | 0.01 | 0.00 | 87 | 1016.5 |
| 20260502045503 | 40 | 0 | 0.0 | 0.0 | 0.00 | 0.01 | 0.00 | 87 | 1016.5 |
| 20260502045003 | 41 | 0 | 0.0 | 0.0 | 0.00 | 0.01 | 0.00 | 86 | 1016.5 |
| 20260502044717 | 41 | 0 | 0.0 | 0.0 | 0.00 | 0.01 | 0.00 | 86 | 1016.4 |
| 20260502044003 | 41 | 0 | 0.0 | 0.0 | 0.00 | 0.01 | 0.00 | 86 | 1016.4 |
| 20260502043503 | 42 | 0 | 0.0 | 0.0 | 0.00 | 0.01 | 0.00 | 86 | 1016.4 |
| 20260502043218 | 42 | 0 | 0.0 | 0.0 | 0.00 | 0.01 | 0.00 | 86 | 1016.3 |
| 20260502042503 | 42 | 0 | 0.0 | 0.0 | 0.00 | 0.01 | 0.00 | 86 | 1016.4 |
| 20260502042003 | 42 | 0 | 0.0 | 0.0 | 0.00 | 0.01 | 0.00 | 86 | 1016.5 |
| 20260502041503 | 42 | 0 | 0.0 | 0.0 | 0.00 | 0.01 | 0.00 | 86 | 1016.4 |
| 20260502041003 | 42 | 0 | 0.0 | 0.0 | 0.00 | 0.01 | 0.00 | 86 | 1016.3 |
| 20260502040503 | 42 | 0 | 0.0 | 0.0 | 0.00 | 0.01 | 0.00 | 86 | 1016.4 |
| 20260502040003 | 42 | 0 | 0.0 | 0.0 | 0.00 | 0.01 | 0.00 | 85 | 1016.4 |
| 20260502035503 | 42 | 0 | 0.0 | 0.0 | 0.00 | 0.01 | 0.01 | 84 | 1016.5 |
| 20260502035003 | 42 | 0 | 0.0 | 0.0 | 0.00 | 0.01 | 0.01 | 83 | 1016.6 |
| 20260502034503 | 42 | 0 | 0.0 | 0.0 | 0.00 | 0.01 | 0.01 | 83 | 1016.7 |
| 20260502034003 | 43 | 0 | 0.0 | 0.0 | 0.00 | 0.01 | 0.01 | 82 | 1016.7 |
| 20260502033717 | 43 | 0 | 0.0 | 0.0 | 0.00 | 0.01 | 0.01 | 81 | 1016.7 |
| 20260502033003 | 43 | 0 | 0.0 | 0.0 | 0.00 | 0.01 | 0.01 | 81 | 1016.7 |
| 20260502032503 | 44 | 0 | 0.0 | 0.0 | 0.00 | 0.01 | 0.01 | 81 | 1016.7 |
| 20260502032003 | 44 | 0 | 0.0 | 0.0 | 0.00 | 0.01 | 0.01 | 80 | 1016.7 |
| 20260502031716 | 44 | 0 | 0.0 | 0.0 | 0.00 | 0.01 | 0.01 | 80 | 1016.7 |
| 20260502031003 | 44 | 0 | 0.0 | 0.0 | 0.00 | 0.01 | 0.01 | 79 | 1016.6 |
| 20260502030503 | 45 | 0 | 0.0 | 0.0 | 0.00 | 0.01 | 0.01 | 78 | 1016.6 |
| 20260502030003 | 45 | 0 | 0.0 | 0.0 | 0.00 | 0.01 | 0.01 | 78 | 1016.6 |
| 20260502025503 | 45 | 0 | 0.0 | 0.0 | 0.00 | 0.01 | 0.01 | 77 | 1016.5 |
| 20260502025003 | 46 | 0 | 0.0 | 0.0 | 0.00 | 0.01 | 0.01 | 77 | 1016.5 |
| 20260502024503 | 46 | 0 | 0.0 | 0.0 | 0.00 | 0.01 | 0.01 | 76 | 1016.4 |
| 20260502024003 | 46 | 0 | 0.0 | 0.0 | 0.00 | 0.01 | 0.01 | 74 | 1016.4 |
| 20260502023503 | 47 | 0 | 0.0 | 0.0 | 0.00 | 0.01 | 0.01 | 74 | 1016.3 |
| 20260502023003 | 47 | 0 | 0.0 | 0.0 | 0.00 | 0.01 | 0.01 | 74 | 1016.4 |
| 20260502022718 | 47 | 0 | 0.0 | 0.0 | 0.00 | 0.01 | 0.01 | 74 | 1016.4 |
| 20260502022003 | 47 | 0 | 0.0 | 0.0 | 0.00 | 0.01 | 0.01 | 72 | 1016.4 |
| 20260502021718 | 48 | 0 | 0.0 | 0.0 | 0.00 | 0.01 | 0.01 | 71 | 1016.4 |
| 20260502021003 | 48 | 0 | 0.0 | 0.0 | 0.00 | 0.01 | 0.01 | 69 | 1016.3 |
| 20260502020503 | 49 | 0 | 0.0 | 0.0 | 0.00 | 0.01 | 0.01 | 68 | 1016.4 |
| 20260502020003 | 50 | 0 | 0.0 | 0.0 | 0.00 | 0.01 | 0.01 | 67 | 1016.2 |
| 20260502015503 | 50 | 0 | 0.0 | 0.0 | 0.00 | 0.01 | 0.01 | 66 | 1016.1 |
| 20260502015003 | 51 | 0 | 0.0 | 0.0 | 0.00 | 0.01 | 0.01 | 66 | 1016.1 |
| 20260502014503 | 51 | 0 | 0.0 | 0.0 | 0.00 | 0.01 | 0.01 | 66 | 1015.9 |
| 20260502014217 | 52 | 0 | 0.0 | 0.0 | 0.00 | 0.01 | 0.01 | 66 | 1015.8 |
| 20260502013718 | 52 | 0 | 0.0 | 0.0 | 0.00 | 0.01 | 0.01 | 65 | 1015.8 |
| 20260502013003 | 52 | 0 | 0.0 | 0.0 | 0.00 | 0.01 | 0.01 | 65 | 1015.6 |
| 20260502012503 | 52 | 0 | 0.0 | 0.0 | 0.00 | 0.01 | 0.01 | 65 | 1015.5 |
| 20260502012003 | 52 | 0 | 0.0 | 0.0 | 0.00 | 0.01 | 0.01 | 64 | 1015.3 |
| 20260502011503 | 52 | 0 | 0.0 | 0.0 | 0.00 | 0.01 | 0.01 | 63 | 1015.1 |
| 20260502011217 | 52 | 0 | 0.0 | 0.0 | 0.00 | 0.01 | 0.01 | 64 | 1015.1 |
| 20260502010503 | 53 | 0 | 0.0 | 0.0 | 0.00 | 0.01 | 0.01 | 64 | 1015.0 |
| 20260502010003 | 53 | 0 | 0.0 | 0.0 | 0.00 | 0.01 | 0.01 | 63 | 1014.9 |
| 20260502005503 | 53 | 0 | 0.0 | 0.0 | 0.00 | 0.01 | 0.01 | 62 | 1014.8 |
| 20260502005003 | 53 | 0 | 0.0 | 0.0 | 0.00 | 0.01 | 0.01 | 62 | 1014.8 |
| 20260502004503 | 53 | 0 | 0.0 | 0.0 | 0.00 | 0.01 | 0.01 | 62 | 1014.7 |
| 20260502004003 | 53 | 0 | 0.0 | 0.0 | 0.00 | 0.01 | 0.01 | 61 | 1014.5 |
| 20260502003503 | 54 | 0 | 0.0 | 0.0 | 0.00 | 0.01 | 0.01 | 62 | 1014.4 |
| 20260502003003 | 54 | 210 | 0.0 | 4.0 | 0.00 | 0.01 | 0.01 | 60 | 1014.4 |
| 20260502002717 | 54 | 210 | 0.0 | 4.0 | 0.00 | 0.01 | 0.01 | 61 | 1014.4 |
| 20260502002003 | 55 | 210 | 0.0 | 6.0 | 0.00 | 0.01 | 0.01 | 60 | 1014.3 |
| 20260502001503 | 55 | 210 | 0.0 | 4.0 | 0.00 | 0.01 | 0.01 | 60 | 1014.3 |
| 20260502001218 | 55 | 210 | 0.0 | 4.0 | 0.00 | 0.01 | 0.01 | 59 | 1014.2 |
| 20260502000503 | 55 | 210 | 0.0 | 4.0 | 0.00 | 0.01 | 0.01 | 59 | 1014.1 |
| 20260502000003 | 55 | 210 | 0.0 | 4.0 | 0.00 | 0.01 | 0.01 | 59 | 1014.0 |
| 20260501235503 | 55 | 210 | 0.0 | 2.0 | 0.00 | 0.01 | 0.01 | 58 | 1014.0 |
| 20260501235003 | 56 | 210 | 0.0 | 2.0 | 0.00 | 0.01 | 0.01 | 58 | 1013.9 |
| 20260501234503 | 56 | 210 | 0.0 | 6.0 | 0.00 | 0.01 | 0.01 | 57 | 1013.8 |
| 20260501234003 | 56 | 210 | 0.0 | 6.0 | 0.00 | 0.01 | 0.01 | 56 | 1013.6 |
| 20260501233717 | 56 | 210 | 2.0 | 8.0 | 0.00 | 0.01 | 0.01 | 57 | 1013.5 |
| 20260501233003 | 57 | 210 | 0.0 | 8.0 | 0.00 | 0.01 | 0.01 | 56 | 1013.4 |
| 20260501232503 | 57 | 210 | 0.0 | 6.0 | 0.00 | 0.01 | 0.01 | 54 | 1013.4 |
| 20260501232218 | 57 | 210 | 0.0 | 6.0 | 0.00 | 0.01 | 0.01 | 54 | 1013.4 |
| 20260501231503 | 57 | 210 | 0.0 | 6.0 | 0.00 | 0.01 | 0.01 | 51 | 1013.5 |
| 20260501231003 | 57 | 210 | 2.0 | 4.0 | 0.00 | 0.01 | 0.01 | 51 | 1013.5 |
| 20260501230503 | 58 | 210 | 2.0 | 6.0 | 0.00 | 0.01 | 0.01 | 50 | 1013.4 |
| 20260501230003 | 58 | 210 | 2.0 | 6.0 | 0.00 | 0.01 | 0.01 | 49 | 1013.4 |
| 20260501225503 | 58 | 210 | 2.0 | 6.0 | 0.00 | 0.01 | 0.01 | 50 | 1013.5 |
| 20260501225003 | 58 | 210 | 2.0 | 6.0 | 0.00 | 0.01 | 0.01 | 49 | 1013.4 |
| 20260501224717 | 58 | 210 | 2.0 | 6.0 | 0.00 | 0.01 | 0.01 | 48 | 1013.3 |
| 20260501224003 | 59 | 210 | 2.0 | 8.0 | 0.00 | 0.01 | 0.01 | 49 | 1013.3 |
| 20260501223503 | 59 | 210 | 2.0 | 8.0 | 0.00 | 0.01 | 0.01 | 48 | 1013.2 |
| 20260501223003 | 59 | 210 | 2.0 | 8.0 | 0.00 | 0.01 | 0.01 | 51 | 1013.3 |
| 20260501222503 | 59 | 210 | 2.0 | 8.0 | 0.00 | 0.01 | 0.01 | 50 | 1013.3 |
| 20260501222003 | 58 | 210 | 2.0 | 6.0 | 0.00 | 0.01 | 0.01 | 51 | 1013.3 |
| 20260501221503 | 59 | 210 | 2.0 | 8.0 | 0.00 | 0.01 | 0.01 | 48 | 1013.3 |
| 20260501221003 | 59 | 210 | 2.0 | 8.0 | 0.00 | 0.01 | 0.01 | 47 | 1013.4 |
| 20260501220716 | 59 | 210 | 2.0 | 6.0 | 0.00 | 0.01 | 0.01 | 49 | 1013.4 |
| 20260501215503 | 60 | 210 | 2.0 | 6.0 | 0.00 | 0.01 | 0.01 | 50 | 1013.4 |
| 20260501215003 | 60 | 210 | 2.0 | 8.0 | 0.00 | 0.01 | 0.01 | 48 | 1013.4 |
| 20260501214503 | 60 | 210 | 4.0 | 8.0 | 0.00 | 0.01 | 0.01 | 49 | 1013.4 |
| 20260501214217 | 59 | 210 | 4.0 | 8.0 | 0.00 | 0.01 | 0.01 | 49 | 1013.4 |
| 20260501213716 | 60 | 210 | 2.0 | 8.0 | 0.00 | 0.01 | 0.01 | 50 | 1013.4 |
| 20260501213003 | 60 | 210 | 4.0 | 8.0 | 0.00 | 0.01 | 0.01 | 51 | 1013.4 |
| 20260501212503 | 59 | 210 | 4.0 | 10.0 | 0.00 | 0.01 | 0.01 | 51 | 1013.3 |
| 20260501212003 | 59 | 210 | 4.0 | 10.0 | 0.00 | 0.01 | 0.01 | 52 | 1013.4 |
| 20260501211503 | 60 | 210 | 2.0 | 6.0 | 0.00 | 0.01 | 0.01 | 50 | 1013.3 |
| 20260501211217 | 59 | 210 | 2.0 | 6.0 | 0.00 | 0.01 | 0.01 | 51 | 1013.3 |
| 20260501210503 | 60 | 210 | 2.0 | 10.0 | 0.00 | 0.01 | 0.01 | 49 | 1013.2 |
| 20260501210217 | 60 | 210 | 2.0 | 10.0 | 0.00 | 0.01 | 0.01 | 47 | 1013.3 |
| 20260501205503 | 60 | 210 | 4.0 | 6.0 | 0.00 | 0.01 | 0.01 | 49 | 1013.3 |
| 20260501205003 | 60 | 210 | 2.0 | 6.0 | 0.00 | 0.01 | 0.01 | 48 | 1013.5 |
| 20260501204718 | 60 | 210 | 2.0 | 6.0 | 0.00 | 0.01 | 0.01 | 49 | 1013.5 |
| 20260501204003 | 60 | 210 | 2.0 | 6.0 | 0.00 | 0.01 | 0.01 | 48 | 1013.5 |
| 20260501203503 | 60 | 210 | 2.0 | 10.0 | 0.00 | 0.01 | 0.01 | 47 | 1013.5 |
| 20260501203217 | 60 | 210 | 2.0 | 10.0 | 0.00 | 0.01 | 0.01 | 48 | 1013.4 |
| 20260501202503 | 61 | 210 | 4.0 | 8.0 | 0.00 | 0.01 | 0.01 | 46 | 1013.4 |
| 20260501202003 | 61 | 210 | 2.0 | 6.0 | 0.00 | 0.01 | 0.01 | 47 | 1013.6 |
| 20260501201718 | 61 | 210 | 2.0 | 8.0 | 0.00 | 0.01 | 0.01 | 48 | 1013.6 |
| 20260501201003 | 61 | 210 | 4.0 | 8.0 | 0.00 | 0.01 | 0.01 | 47 | 1013.7 |
| 20260501200503 | 61 | 210 | 4.0 | 12.0 | 0.00 | 0.01 | 0.01 | 48 | 1013.7 |
| 20260501200003 | 61 | 210 | 4.0 | 12.0 | 0.00 | 0.01 | 0.01 | 49 | 1013.7 |
| 20260501195503 | 61 | 210 | 2.0 | 6.0 | 0.00 | 0.01 | 0.01 | 49 | 1013.8 |
| 20260501195003 | 61 | 210 | 2.0 | 12.0 | 0.00 | 0.01 | 0.01 | 54 | 1013.9 |